User: anonymous   Login
Location: Unspecified
(0.0000°N, 0.0000°E)
Time: 20:47:57
(UTC+00:00)
Language:

STARLINK-5557 - Orbit

View from above orbital plane
View from above orbital plane
View from above satellite
View from above satellite

Ground track
Ground track

The orbit is defined by the following mean orbital elements,

1 55770U          26145.40575464 +.00000000 +00000-0 -76548-5 0 00006
2 55770  70.0005  31.0616 0002399 268.7089  91.3795 14.98329114    04
Epoch (UTC): 25 May 2026 09:44:17
Eccentricity: 0.0002399
inclination: 70.0005°
perigee height: 570 km
apogee height: 574 km
right ascension of ascending node: 31.0616°
argument of perigee: 268.7089°
revolutions per day: 14.98329114
mean anomaly at epoch: 91.3795°

The dashed part of the orbit path shows where the satellite is in the earth's shadow,  

DLR